Regional Weather Roundup
Issued by NWS Jackson, KY

Home | Current Version | Previous Version | Text Only | Print | Product List | Glossary On
Versions: 1 2 3 4 5 6 7 8 9 10 11 12 13 14 15 16 17 18 19 20 21 22 23 24 25 26 27 28 29 30 31 32 33 34 35 36 37 38 39 40 41 42 43 44 45 46 47 48 49 50
000
ASUS43 KJKL 190810
RWRJKL

EAST KENTUCKY HOURLY WEATHER ROUNDUP
NATIONAL WEATHER SERVICE JACKSON KY
400 AM EDT SUN APR 19 2015

NOTE: "FAIR" INDICATES FEW OR NO CLOUDS BELOW 12,000 FEET WITH
NO SIGNIFICANT WEATHER AND/OR OBSTRUCTIONS TO VISIBILITY.

* THESE REPORTS ARE NOT UNDER NWS QUALITY CONTROL AND MAY NOT
  REPORT WEATHER SUCH AS PRECIPITATION AND FOG.

KYZ079-080-083-085-087-088-110-112-115-119-120-190900
...EASTERN KENTUCKY...

CITY           SKY/WX    TMP DP  RH WIND       PRES   REMARKS
JACKSON        CLOUDY    66  44  45 VRB6      29.89F
LONDON         CLOUDY    66  55  67 CALM      29.88F
SOMERSET*      LGT RAIN  61  57  88 CALM      29.88F
MONTICELLO*    CLOUDY    65  62  90 E5        29.87F
MIDDLESBORO*   CLOUDY    63  60  91 CALM      29.89F
HARLAN APT*    CLOUDY    64  54  68 SE3       29.90F
HAZARD APT*    MOSUNNY   63  50  63 CALM      29.89
BLACK MTN*       N/A     57  54  88 SE2         N/A
PIKEVILLE APT* CLOUDY    66  52  59 SE6       29.91F
BIG SANDY*     PTSUNNY   63  49  59 SE5       29.90F
MOREHEAD APT*  PTSUNNY   66  41  39 E9        29.90F
$$

KYZ035-036-041-042-044-050-067-078-099-190900
...CENTRAL KENTUCKY...

CITY           SKY/WX    TMP DP  RH WIND       PRES   REMARKS
MT STERLING*   CLOUDY    64  45  48 E5        29.90S
FLEMING/MASON* PTCLDY    63  45  51 NE8       29.90F
DANVILLE*      CLOUDY    64  50  59 SE3       29.87F
RICHMOND*      CLOUDY    64  46  52 SE5       29.87S
LEXINGTON      CLOUDY    66  46  48 E8        29.86F
FRANKFORT      LGT RAIN  63  49  60 NE6       29.85F
$$

KYZ091>093-OHZ055-061-077-WVZ005-015-034-035-042-190900
...SOUTHERN OHIO/WEST VIRGINIA...

CITY           SKY/WX    TMP DP  RH WIND       PRES   REMARKS
COVINGTON      CLOUDY    65  44  46 E14       29.89F
COLUMBUS       CLOUDY    59  39  47 E8        29.96F
DAYTON         MOCLDY    58  41  53 E9        29.95F
WILMINGTON     PTCLDY    56  46  69 NE10      29.93F
HUNTINGTON     PTCLDY    64  43  46 E7        29.90F
CHARLESTON     PTCLDY    60  45  57 E5        29.93F
PINEVILLE*     CLEAR     56  53  90 MISG      30.01F
BECKLEY        CLEAR     61  50  67 SE7       30.00F
BLUEFIELD      PTCLDY    63  54  72 VRB6      30.02F
$$

VAZ002-007-008-TNZ017-027-036-066-071-190900
...SOUTHWEST VIRGINIA/EAST TENNESSEE...

CITY           SKY/WX    TMP DP  RH WIND       PRES   REMARKS
WISE*          CLOUDY    63  52  67 CALM      29.97F
JONESVILLE*    CLOUDY    63  57  82 CALM      29.92F
ABINGDON*      CLOUDY    65  57  75 SE9       29.95F
BRISTOL        CLOUDY    60  59  96 CALM      29.92F
KNOXVILLE      CLOUDY    64  62  93 CALM      29.86S FOG
OAK RIDGE      CLOUDY    65  62  90 CALM      29.88F
CROSSVILLE     CLOUDY    63  60  90 S3        29.88F
NASHVILLE      LGT RAIN  65  63  93 CALM      29.78F
$$

...KEY TO REMARKS...
VSB - VISIBILITY IN MILES
WCI - WIND CHILL INDEX
HX  - HEAT INDEX

$$



USA.gov is the U.S. government's official web portal to all federal, state and local government web resources and services.